Location: Flotzheim
(48.8375°N, 10.8136°E)
Time: 04:24:40
(UTC+00:00)

S3M - Pass Details

Date: 23 January 2021
Orbit: 949 x 1005 km, 83.0° (Epoch: 26 February)

Event Time Altitude Azimuth Distance (km) Brightness Sun altitude
Rises 19:21:47 0° 347° (NNW) 3,639 7.2 -32.8°
Reaches altitude 10° 19:24:19 10° 344° (NNW) 2,686 6.5 -33.3°
Enters shadow 19:29:54 57° 284° (WNW) 1,114 4.4 -34.2°
